COSMOS 1331 DEB

Satellite information

Favourite Embed

Satellite Type and Status

DEBRISIN ORBIT

Key statistics

Satellite COSMOS 1331 DEB at a glance.

Uptime

15951

Days in orbit

Revolutions

≈ 14.4

Per day

Orbit

LEO

Low Earth Orbit

Inclination

74.0

Latest

Satellite identification and parameters

Extended collection of information and parameters for COSMOS 1331 DEB.

Object identification

Identified? True

Debris? True

Object name: COSMOS 1331 DEB

International designator: 1982-001E

Object number (NORAD): 37863

Object ID (CCSDS): 37863

Country: COMMONWEALTH OF INDEPENDENT STATES (CIS)

Current information (Y/N): Y

RCS size: SMALL

Orbital parameters

Period: 99.96 minutes

Inclination: 74.0454 deg

SMA: 7134.751 km

Apoapsis: 773.654 km

Periapsis: 739.578 km

RAAN: 286.847 deg

Eccentricy: 0.00238801

Argument of periapsis: 298.7558 deg

Mean anomaly: 61.1198 deg

Mean motion: 14.40570503 rev/day

Mean motion (dot): 0.00000308 rev/day2

B* drag term: 0.00010462628 1/REarth

Two-line elements (TLE)

Creation date: Aug. 28, 2025, 2:53 a.m.

Reference frame: TEME

Reference center: EARTH

Epoch: Aug. 27, 2025, 8:35 p.m. UTC

TLE line 0: 0 COSMOS 1331 DEB

TLE line 1: 1 37863U 82001E 25239.85786503 .00000308 00000-0 10463-3 0 9999

TLE line 2: 2 37863 74.0454 286.8470 0023880 298.7558 61.1198 14.40570503660314

Live tracking on map

Real-time ground track for satellite COSMOS 1331 DEB.

In-orbit conjunctions

A list of the most updated potential collisions computed for object COSMOS 1331 DEB.

Target Orbit TCA Probability of collision Miss distance Type
DMSP 5D-2 F13 DEB SSO 2024-10-13 07:02:25 0.000141944 143.0 (m) DEBRIS
FENGYUN 1C DEB SSO 2024-09-25 13:46:25 0.000405547 226.0 (m) DEBRIS

Associated space launch

Military communications satellite

COSMOS 1331 DEB was lifted into orbit during the mission ‘Kosmos-3M | Strela-2M 26’, on board a Kosmos-3M space rocket.

The launch took place on Jan. 7, 1982, 3:38 p.m. from 132/2.

For more information about the launch, click the button.

Launch to space Kosmos-3M | Strela-2M 26
Kosmos-3M | Strela-2M 26

Agency: N/A

Status: Launch Successful

Launch date: Jan. 7, 1982, 3:38 p.m. UTC

Rocket: Kosmos-3M

Launch pad: 132/2

Location: Plesetsk Cosmodrome, Russian Federation

...

Latest news about this satellite

There are no fresh news available about this satellite. Check back as we update our databases every day.


Newsletter sign-up

Weekly statistics, charts and insights to help you stay on top of the space industry.